| time (UTC) | temp F | wind direction | speed knots | gust knots | rain 1hr in | rain 24hr in | rain mn in | humidity % | barometer mb |
| 20260906140030 | 100 | 94 | 4.3 | 12.2 | 0.00 | 0.00 | 0.00 | 15 | 1010.4 |
| 20260906134510 | 100 | 150 | 5.2 | 13.9 | 0.00 | 0.00 | 0.00 | 14 | 1010.5 |
| 20260906133016 | 101 | 157 | 6.1 | 11.3 | 0.00 | 0.00 | 0.00 | 14 | 1010.5 |
| 20260906131523 | 101 | 206 | 2.6 | 9.6 | 0.00 | 0.00 | 0.00 | 14 | 1010.5 |
| 20260906130027 | 101 | 140 | 3.5 | 9.6 | 0.00 | 0.00 | 0.00 | 14 | 1010.6 |
| 20260906124530 | 100 | 58 | 2.6 | 7.8 | 0.00 | 0.00 | 0.00 | 14 | 1010.7 |
| 20260906123016 | 100 | 108 | 4.3 | 7.8 | 0.00 | 0.00 | 0.00 | 14 | 1010.7 |
| 20260906121516 | 101 | 360 | 5.2 | 7.8 | 0.00 | 0.00 | 0.00 | 14 | 1010.9 |
| 20260906120023 | 100 | 150 | 3.5 | 7.8 | 0.00 | 0.00 | 0.00 | 14 | 1010.8 |
| 20260906114541 | 100 | 39 | 7.0 | 10.4 | 0.00 | 0.00 | 0.00 | 14 | 1010.9 |
| 20260906113031 | 100 | 122 | 7.0 | 12.2 | 0.00 | 0.00 | 0.00 | 15 | 1011.1 |
| 20260906111523 | 100 | 150 | 2.6 | 10.4 | 0.00 | 0.00 | 0.00 | 14 | 1011.2 |
| 20260906110018 | 100 | 129 | 4.3 | 10.4 | 0.00 | 0.00 | 0.00 | 14 | 1011.4 |
| 20260906104528 | 100 | 201 | 1.7 | 13.0 | 0.00 | 0.00 | 0.00 | 14 | 1011.5 |
| 20260906103033 | 100 | 108 | 1.7 | 8.7 | 0.00 | 0.00 | 0.00 | 14 | 1011.7 |
| 20260906101531 | 100 | 185 | 0.9 | 5.2 | 0.00 | 0.00 | 0.00 | 15 | 1011.9 |
| 20260906100018 | 99 | 139 | 6.1 | 10.4 | 0.00 | 0.00 | 0.00 | 14 | 1011.8 |
| 20260906094524 | 98 | 155 | 5.2 | 8.7 | 0.00 | 0.00 | 0.00 | 15 | 1012.0 |
| 20260906093029 | 98 | 89 | 4.3 | 6.1 | 0.00 | 0.00 | 0.00 | 14 | 1012.1 |
| 20260906091535 | 98 | 36 | 1.7 | 7.8 | 0.00 | 0.00 | 0.00 | 14 | 1012.4 |
| 20260906090037 | 98 | 119 | 2.6 | 8.7 | 0.00 | 0.00 | 0.00 | 14 | 1012.6 |
| 20260906084527 | 98 | 266 | 0.9 | 5.2 | 0.00 | 0.00 | 0.00 | 15 | 1012.7 |
| 20260906083027 | 97 | 160 | 2.6 | 7.0 | 0.00 | 0.00 | 0.00 | 16 | 1012.8 |
| 20260906081539 | 96 | 87 | 3.5 | 7.0 | 0.00 | 0.00 | 0.00 | 17 | 1012.9 |
| 20260906080035 | 95 | 341 | 3.5 | 7.8 | 0.00 | 0.00 | 0.00 | 17 | 1013.1 |
| 20260906074534 | 94 | 55 | 3.5 | 7.0 | 0.00 | 0.00 | 0.00 | 18 | 1013.3 |
| 20260906073028 | 94 | 105 | 3.5 | 7.8 | 0.00 | 0.00 | 0.00 | 18 | 1013.4 |
| 20260906071531 | 92 | 43 | 3.5 | 7.0 | 0.00 | 0.00 | 0.00 | 19 | 1013.5 |
| 20260906070031 | 92 | 33 | 3.5 | 7.0 | 0.00 | 0.00 | 0.00 | 19 | 1013.6 |
| 20260906064531 | 91 | 343 | 1.7 | 7.8 | 0.00 | 0.00 | 0.00 | 19 | 1013.7 |
| 20260906063032 | 90 | 5 | 2.6 | 8.7 | 0.00 | 0.00 | 0.00 | 19 | 1013.9 |
| 20260906061530 | 90 | 53 | 2.6 | 6.1 | 0.00 | 0.00 | 0.00 | 20 | 1013.9 |
| 20260906060036 | 89 | 85 | 4.3 | 8.7 | 0.00 | 0.00 | 0.00 | 21 | 1013.8 |
| 20260906054532 | 88 | 74 | 4.3 | 7.8 | 0.00 | 0.00 | 0.00 | 22 | 1013.7 |
| 20260906053035 | 87 | 93 | 2.6 | 4.3 | 0.00 | 0.00 | 0.00 | 24 | 1013.9 |
| 20260906051535 | 86 | 126 | 1.7 | 5.2 | 0.00 | 0.00 | 0.00 | 25 | 1013.7 |
| 20260906050032 | 85 | 98 | 2.6 | 5.2 | 0.00 | 0.00 | 0.00 | 27 | 1013.7 |
| 20260906044509 | 84 | 92 | 1.7 | 3.5 | 0.00 | 0.00 | 0.00 | 29 | 1013.7 |
| 20260906043015 | 83 | 204 | 0.0 | 1.7 | 0.00 | 0.00 | 0.00 | 29 | 1013.7 |
| 20260906041530 | 82 | 204 | 0.9 | 2.6 | 0.00 | 0.00 | 0.00 | 29 | 1013.7 |
| 20260906040035 | 80 | 257 | 0.0 | 2.6 | 0.00 | 0.00 | 0.00 | 30 | 1013.6 |
| 20260906034534 | 79 | 235 | 0.9 | 3.5 | 0.00 | 0.00 | 0.00 | 31 | 1013.6 |
| 20260906033014 | 78 | 236 | 0.9 | 2.6 | 0.00 | 0.00 | 0.00 | 31 | 1013.3 |
| 20260906031532 | 77 | 236 | 0.9 | 3.5 | 0.00 | 0.00 | 0.00 | 31 | 1013.2 |
| 20260906030028 | 77 | 232 | 0.0 | 2.6 | 0.00 | 0.00 | 0.00 | 31 | 1013.0 |
| 20260906024537 | 77 | 217 | 0.9 | 2.6 | 0.00 | 0.00 | 0.00 | 31 | 1012.8 |
| 20260906023012 | 78 | 111 | 0.0 | 1.7 | 0.00 | 0.00 | 0.00 | 31 | 1012.7 |
| 20260906021522 | 78 | 102 | 0.0 | 1.7 | 0.00 | 0.00 | 0.00 | 31 | 1012.4 |
| 20260906020030 | 78 | 173 | 0.0 | 1.7 | 0.00 | 0.00 | 0.00 | 30 | 1012.5 |
| 20260906014532 | 79 | 173 | 0.0 | 1.7 | 0.00 | 0.00 | 0.00 | 29 | 1012.4 |
| 20260906013031 | 79 | 173 | 0.0 | 1.7 | 0.00 | 0.00 | 0.00 | 30 | 1012.4 |
| 20260906011517 | 78 | 229 | 0.0 | 3.5 | 0.00 | 0.00 | 0.00 | 29 | 1012.4 |
| 20260906010023 | 79 | 206 | 1.7 | 3.5 | 0.00 | 0.00 | 0.00 | 29 | 1012.2 |
| 20260906004530 | 79 | 228 | 0.0 | 2.6 | 0.00 | 0.00 | 0.00 | 29 | 1012.2 |
| 20260906003031 | 80 | 215 | 0.0 | 3.5 | 0.00 | 0.00 | 0.00 | 28 | 1012.2 |
| 20260906001542 | 80 | 244 | 1.7 | 3.5 | 0.00 | 0.00 | 0.00 | 29 | 1012.2 |
| 20260906000020 | 80 | 228 | 1.7 | 3.5 | 0.00 | 0.00 | 0.00 | 28 | 1012.2 |
| 20260905234524 | 79 | 211 | 0.0 | 3.5 | 0.00 | 0.00 | 0.00 | 28 | 1012.3 |
| 20260905233028 | 80 | 223 | 0.9 | 2.6 | 0.00 | 0.00 | 0.00 | 28 | 1012.3 |
| 20260905231537 | 80 | 207 | 1.7 | 3.5 | 0.00 | 0.00 | 0.00 | 29 | 1012.2 |
| 20260905230016 | 81 | 209 | 0.9 | 2.6 | 0.00 | 0.00 | 0.00 | 28 | 1012.4 |
| 20260905224524 | 81 | 227 | 0.0 | 2.6 | 0.00 | 0.00 | 0.00 | 27 | 1012.3 |
| 20260905223005 | 82 | 225 | 0.0 | 1.7 | 0.00 | 0.00 | 0.00 | 27 | 1012.4 |
| 20260905221508 | 82 | 255 | 0.9 | 1.7 | 0.00 | 0.00 | 0.00 | 27 | 1012.6 |
| 20260905220016 | 83 | 249 | 0.9 | 1.7 | 0.00 | 0.00 | 0.00 | 25 | 1012.7 |
| 20260905214520 | 83 | 260 | 0.0 | 2.6 | 0.00 | 0.00 | 0.00 | 24 | 1012.8 |
| 20260905213026 | 82 | 252 | 1.7 | 2.6 | 0.00 | 0.00 | 0.00 | 23 | 1012.8 |
| 20260905211507 | 82 | 227 | 0.0 | 3.5 | 0.00 | 0.00 | 0.00 | 24 | 1012.8 |
| 20260905210011 | 83 | 224 | 0.9 | 2.6 | 0.00 | 0.00 | 0.00 | 23 | 1012.9 |
| 20260905204518 | 83 | 229 | 0.9 | 4.3 | 0.00 | 0.00 | 0.00 | 24 | 1012.9 |
| 20260905203027 | 84 | 189 | 0.9 | 3.5 | 0.00 | 0.00 | 0.00 | 23 | 1013.0 |
| 20260905201530 | 85 | 147 | 0.0 | 2.6 | 0.00 | 0.00 | 0.00 | 23 | 1013.1 |
| 20260905200010 | 85 | 267 | 0.9 | 3.5 | 0.00 | 0.00 | 0.00 | 23 | 1013.1 |
| 20260905194515 | 85 | 192 | 0.9 | 3.5 | 0.00 | 0.00 | 0.00 | 23 | 1013.1 |
| 20260905193024 | 87 | 242 | 0.9 | 3.5 | 0.00 | 0.00 | 0.00 | 22 | 1013.1 |
| 20260905191530 | 87 | 217 | 1.7 | 4.3 | 0.00 | 0.00 | 0.00 | 23 | 1013.0 |
| 20260905190041 | 87 | 159 | 0.0 | 0.9 | 0.00 | 0.00 | 0.00 | 20 | 1012.9 |
| 20260905184512 | 88 | 159 | 0.0 | 0.9 | 0.00 | 0.00 | 0.00 | 21 | 1013.0 |
| 20260905183019 | 88 | 169 | 0.9 | 3.5 | 0.00 | 0.00 | 0.00 | 19 | 1013.0 |
| 20260905181528 | 88 | 273 | 1.7 | 5.2 | 0.00 | 0.00 | 0.00 | 20 | 1013.1 |
| 20260905180047 | 91 | 181 | 1.7 | 5.2 | 0.00 | 0.00 | 0.00 | 18 | 1013.2 |
| 20260905174533 | 92 | 285 | 3.5 | 7.0 | 0.00 | 0.00 | 0.00 | 16 | 1013.1 |
| 20260905173016 | 91 | 281 | 6.1 | 8.7 | 0.00 | 0.00 | 0.00 | 17 | 1012.9 |
| 20260905171528 | 92 | 200 | 2.6 | 4.3 | 0.00 | 0.00 | 0.00 | 19 | 1012.9 |
| 20260905170027 | 94 | 240 | 0.0 | 1.7 | 0.00 | 0.00 | 0.00 | 18 | 1012.8 |
| 20260905164530 | 94 | 314 | 0.0 | 3.5 | 0.00 | 0.00 | 0.00 | 17 | 1012.6 |
| 20260905163013 | 94 | 277 | 0.0 | 1.7 | 0.00 | 0.00 | 0.00 | 17 | 1012.4 |
| 20260905161524 | 95 | 256 | 1.7 | 6.1 | 0.00 | 0.00 | 0.00 | 16 | 1012.3 |
| 20260905160045 | 95 | 257 | 0.9 | 2.6 | 0.00 | 0.00 | 0.00 | 17 | 1012.1 |
| 20260905154535 | 95 | 200 | 1.7 | 4.3 | 0.00 | 0.00 | 0.00 | 17 | 1011.8 |
| 20260905153036 | 96 | 200 | 1.7 | 6.1 | 0.00 | 0.00 | 0.00 | 16 | 1011.6 |
| 20260905151518 | 97 | 185 | 2.6 | 6.1 | 0.00 | 0.00 | 0.00 | 16 | 1011.6 |
| 20260905150023 | 98 | 180 | 2.6 | 7.8 | 0.00 | 0.00 | 0.00 | 16 | 1011.6 |
| 20260905144530 | 98 | 223 | 4.3 | 7.8 | 0.00 | 0.00 | 0.00 | 15 | 1011.3 |
| 20260905143032 | 99 | 134 | 2.6 | 7.0 | 0.00 | 0.00 | 0.00 | 14 | 1011.3 |
| 20260905141535 | 99 | 138 | 4.3 | 8.7 | 0.00 | 0.00 | 0.00 | 14 | 1011.1 |